Home > Weather > Chula Vista > Past weeks

Flag for USA Past Weather in Chula Vista, California, USA — Yesterday and Last 2 Weeks

Now
66 °F

Overcast.


Feels Like: 66 °F
Forecast: 61 / 76 °F
Wind: 3 mph from West

Location: Brown Field Municipal Airport

Current Time: Aug 27, 2016 at 10:06:43 AM

Latest Report: Aug 27, 2016 at 8:53 AM


Visibility: 10 mi

Pressure: 29.99 "Hg

Humidity: 73%

Dew Point: 57 °F

Location of Chula VistaLocation

Past Weather in Chula Vista — Graph

°F

Chula Vista Temperature Yesterday

Maximum temperature yesterday: 74 °F (at 11:53 AM)
Minimum temperature yesterday: 63 °F (at 8:53 PM)
Average temperature yesterday: 67 °F

High & Low Weather Summary for the Past Weeks

 TemperatureHumidityPressure
High94 °F (Aug 15, 10:53 AM)100% (Aug 23, 6:53 AM)30.04 "Hg (Aug 23, 6:53 AM)
Low59 °F (Aug 23, 5:53 AM)35% (Aug 15, 4:53 PM)29.79 "Hg (Aug 17, 5:53 PM)
Average73 °F72%29.91 "Hg
* Reported Aug 12 8:53 AM — Aug 27 8:53 AM, Chula Vista, Weather by CustomWeather, © 2016

Note: Actual official high and low records may vary slightly from our data, if they occured in-between our weather recording intervals... More about our weather records

Advertising

Chula Vista Weather History for the Previous 24 Hours

Scroll right to see more
 ConditionsComfort  
Time TempWeatherWind HumidityBarometerVisibility
8:53 AM
Sat, Aug 27
66 °FOvercast.3 mph73%29.99 "Hg10 mi
7:53 AM65 °FOvercast.3 mph76%29.98 "Hg10 mi
6:53 AM66 °FOvercast.No wind73%29.96 "Hg10 mi
5:53 AM65 °FOvercast.3 mph76%29.95 "Hg10 mi
4:53 AM65 °FOvercast.5 mph76%29.94 "Hg10 mi
3:53 AM65 °FOvercast.6 mph76%29.94 "Hg10 mi
2:53 AM65 °FOvercast.3 mph76%29.94 "Hg10 mi
1:53 AM65 °FOvercast.5 mph76%29.95 "Hg9 mi
12:53 AM65 °FOvercast.5 mph76%29.95 "Hg10 mi
11:53 PM
Fri, Aug 26
65 °FOvercast.5 mph76%29.96 "Hg10 mi
10:53 PM65 °FOvercast.6 mph76%29.97 "Hg10 mi
9:53 PM65 °FOvercast.5 mph73%29.97 "Hg10 mi
8:53 PM63 °FClear.5 mph78%29.96 "Hg10 mi
7:53 PM64 °FSunny.7 mph75%29.94 "Hg10 mi
6:53 PM66 °FSunny.8 mph70%29.93 "Hg10 mi
5:53 PM70 °FPassing clouds.7 mph61%29.93 "Hg10 mi
4:53 PM71 °FPassing clouds.7 mph61%29.93 "Hg10 mi
3:53 PM73 °FPassing clouds.10 mph57%29.94 "Hg10 mi
2:53 PM74 °FSunny.12 mph56%29.94 "Hg10 mi
1:53 PM74 °FSunny.10 mph53%29.95 "Hg10 mi
12:53 PM74 °FSunny.12 mph53%29.96 "Hg10 mi
11:53 AM74 °FSunny.9 mph53%29.97 "Hg10 mi
10:53 AM69 °FOvercast.6 mph63%29.99 "Hg8 mi
Weather by CustomWeather, © 2016

See weather overviewHow to use our weather pages